Theta_e
309 304 302 305 305 306 305 302 304 309 312 309 306 303 323 329 329 328 328 329 330 332 334 332 336 340 341 341 342 344 344 344 344 344 343 342 342 343 343 344 344 344 346 346
305 302 308 310 309 306 303 301 302 307 312 305 303 305 315 325 328 329 328 329 330 330 329 332 334 337 339 339 342 343 344 344 345 347 345 343 344 345 346 348 346 345 344 345
303 307 312 310 308 304 299 301 301 302 306 305 305 303 312 317 321 325 331 331 331 330 329 332 337 336 337 338 340 343 344 345 346 347 344 344 345 343 341 340 343 345 345 345
305 311 311 308 306 303 300 306 306 305 299 296 301 293 305 312 314 323 325 328 331 331 331 336 338 338 338 339 342 344 343 345 347 347 346 345 341 339 342 342 343 343 346 345
305 306 305 304 306 306 303 308 306 306 297 295 301 299 299 308 311 320 327 330 332 332 336 337 338 338 341 342 342 344 343 345 348 347 347 345 342 342 342 343 344 343 344 345
304 308 306 305 308 307 307 304 301 300 295 291 297 299 300 306 310 315 325 330 331 331 330 328 331 330 332 337 345 350 343 343 344 345 344 343 344 344 341 341 342 344 345 346
301 304 306 307 301 303 301 296 291 291 293 292 298 299 301 310 313 318 320 325 328 330 331 332 329 330 331 331 337 352 347 344 342 339 341 343 343 343 344 343 342 342 344 345
294 296 302 306 304 301 298 297 291 288 288 295 302 297 303 316 324 324 325 330 334 332 330 331 332 330 332 334 337 349 337 334 330 336 334 332 345 346 346 347 346 344 345 346
293 296 303 306 304 305 297 294 296 292 295 295 299 304 310 318 319 324 327 330 331 333 333 332 338 341 339 336 336 340 332 333 335 337 334 330 341 348 351 349 347 348 347 346
297 294 298 307 305 304 303 301 295 293 292 291 298 300 301 311 317 321 326 328 331 333 332 333 338 339 339 339 341 342 337 338 335 334 332 335 344 353 353 350 349 347 347 345
297 294 298 304 302 297 300 299 296 296 297 293 292 297 307 311 319 317 326 327 328 329 330 331 336 338 339 342 344 345 343 339 334 334 336 336 343 351 353 350 349 347 346 341
301 293 293 297 303 308 304 302 299 296 295 296 295 298 311 314 319 319 323 324 324 327 329 333 332 335 334 335 339 340 343 343 342 340 340 342 346 349 347 347 348 347 346 341
303 296 292 296 301 304 304 304 300 298 295 294 295 297 312 312 314 319 322 325 326 329 330 330 325 329 332 328 331 336 336 338 340 340 343 340 339 339 342 341 345 345 345 343
309 295 295 294 297 301 301 305 303 300 296 295 296 300 305 310 315 321 324 324 330 331 332 329 326 324 321 320 323 329 330 332 333 337 336 336 336 336 340 342 342 343 343 342
302 297 299 298 306 306 305 303 305 302 301 297 301 302 305 309 313 317 327 329 329 329 329 328 327 325 324 324 323 330 327 326 328 330 329 329 332 334 337 338 339 341 340 340
302 298 298 299 304 305 301 305 306 306 306 304 305 305 311 314 316 314 315 319 320 321 323 325 326 328 327 327 327 329 330 327 328 327 328 330 330 330 330 330 332 335 338 337
301 298 295 294 299 300 297 302 305 306 306 306 302 307 312 308 309 309 309 312 312 312 313 312 313 315 319 322 324 328 328 330 329 327 327 328 328 327 328 329 330 329 329 335
300 298 295 294 295 290 301 308 310 306 307 307 307 310 309 308 308 309 309 309 310 312 313 313 314 314 317 318 319 320 322 326 329 327 327 327 328 325 326 326 326 327 329 329
301 298 294 293 290 297 303 306 305 303 302 308 305 307 309 311 309 307 312 315 313 314 315 316 317 317 317 318 319 318 318 318 319 322 325 327 328 325 325 325 326 326 327 328
301 299 298 292 291 291 300 309 311 308 297 309 307 307 306 306 300 302 311 315 316 316 317 317 318 318 318 319 319 318 318 319 319 320 322 323 324 325 327 327 326 327 327 328
298 297 294 293 293 299 307 309 312 297 298 307 307 307 306 304 305 308 314 314 315 316 316 318 317 315 316 318 318 318 319 319 322 322 325 326 325 326 327 326 326 326 327 328
298 296 295 297 295 294 308 308 303 304 305 307 309 309 308 309 311 312 313 313 314 313 315 316 315 315 316 317 317 316 317 320 322 323 324 325 325 326 327 326 326 325 327 326
298 300 299 298 299 304 306 306 307 306 306 308 310 311 312 311 310 311 311 311 312 313 314 315 315 318 319 319 318 317 318 321 321 321 320 322 323 323 325 323 323 323 324 324
302 303 301 300 303 305 307 308 309 311 311 312 314 313 313 310 311 309 310 310 311 314 314 316 318 318 318 320 319 320 321 321 319 320 322 323 323 322 323 324 324 323 323 322
303 304 302 301 304 306 309 311 313 314 315 315 314 313 311 310 309 307 310 312 314 315 316 317 316 314 313 315 313 313 314 314 310 310 312 314 319 322 322 323 323 323 324 322
304 303 300 299 305 303 307 313 315 314 313 314 312 311 312 311 309 309 312 314 314 314 314 313 312 311 310 311 311 310 310 310 309 307 307 308 311 315 319 322 323 316 313 310
Wind_Speed
5 5 6 7 5 2 5 5 10 4 5 6 7 3 11 16 12 12 13 14 15 15 8 5 11 14 14 12 13 15 15 11 9 5 4 3 6 4 5 5 6 7 6 6
7 6 8 5 6 3 5 7 2 3 1 4 1 7 3 14 16 16 16 15 15 7 6 8 8 8 13 17 15 14 13 10 11 8 5 3 3 4 5 6 5 7 7 6
5 9 7 4 12 4 4 3 2 4 2 6 3 5 4 4 2 8 13 9 6 9 9 9 7 10 8 10 15 14 13 11 10 9 3 2 0 1 2 4 5 7 8 7
5 7 6 8 8 6 1 4 0 3 5 2 3 5 4 6 6 7 6 12 10 10 8 8 8 8 11 12 9 9 9 9 9 9 8 9 4 4 4 4 5 6 9 8
8 5 4 5 8 5 7 3 2 1 4 3 1 6 5 1 7 5 3 4 6 9 5 8 9 6 3 4 6 4 3 6 7 8 10 8 5 4 2 2 5 6 6 9
8 5 4 9 4 2 2 5 6 5 3 4 7 4 7 2 6 3 5 2 2 5 6 5 7 6 5 2 4 6 6 2 6 2 5 9 10 6 4 4 4 4 4 5
7 7 4 5 2 4 7 7 4 7 7 4 4 4 7 4 5 4 2 8 2 4 5 7 6 2 3 3 3 5 10 12 11 15 20 17 9 7 8 7 6 5 5 4
1 9 3 3 8 8 3 8 7 3 3 4 5 1 6 4 0 1 4 4 5 8 8 8 8 3 6 5 4 9 12 7 13 19 19 26 18 7 8 8 6 6 5 5
5 7 5 6 2 9 2 2 4 9 3 3 4 5 2 3 4 6 7 11 10 12 15 15 16 14 4 6 8 8 7 7 6 13 16 21 26 12 11 11 6 8 7 4
3 3 3 5 3 5 5 6 3 4 4 3 5 6 6 7 6 6 10 11 8 4 11 11 11 12 2 5 9 7 7 7 10 9 11 16 11 9 9 7 9 8 6 4
6 4 10 4 5 3 5 4 6 7 4 6 2 8 6 8 8 8 10 13 6 4 5 5 6 10 2 4 5 7 10 9 7 10 8 10 10 9 8 7 6 8 5 6
7 6 2 2 3 4 4 4 5 7 1 2 4 6 6 7 6 6 7 3 6 5 4 2 5 10 3 5 7 4 5 6 7 8 10 12 11 7 6 4 7 4 6 6
8 0 3 9 8 5 7 3 5 5 4 2 6 6 5 5 1 7 6 6 5 4 3 5 6 8 2 5 5 3 3 5 6 5 7 4 2 3 4 2 3 1 2 4
10 4 7 8 6 4 5 1 3 5 5 3 5 2 6 4 7 7 7 8 7 5 4 7 7 7 5 2 4 6 6 5 3 3 4 4 1 2 3 3 1 1 1 2
7 4 4 2 1 2 5 3 3 5 5 5 4 6 2 3 5 3 6 6 7 6 5 5 6 6 7 7 6 6 5 5 5 6 4 3 2 2 3 4 4 4 4 3
4 2 4 6 6 7 5 11 5 5 5 8 8 6 4 7 12 15 11 10 9 5 4 6 7 6 6 6 7 6 7 7 6 5 6 6 4 4 4 4 3 3 2 1
5 7 4 1 5 4 7 7 4 5 5 6 5 3 5 10 12 7 6 8 6 5 7 10 10 9 9 8 7 7 7 6 7 7 8 7 6 6 6 4 4 4 4 3
6 5 4 4 1 4 7 2 11 14 10 9 11 8 5 9 7 7 6 6 6 6 6 6 5 6 6 7 9 11 11 10 7 7 8 7 7 7 7 6 7 6 5 6
3 6 5 5 4 2 4 6 3 4 3 4 6 4 2 1 4 7 6 6 4 4 5 4 5 5 7 7 7 6 7 8 8 10 10 9 7 7 7 8 8 7 5 6
6 9 7 3 6 8 6 2 2 5 1 1 4 4 3 4 3 4 6 6 7 7 6 8 8 7 7 10 9 8 7 7 7 7 8 8 8 7 8 8 8 6 4 7
5 5 5 3 2 6 4 0 5 3 7 4 4 4 3 3 4 1 5 4 3 4 7 7 6 7 8 10 11 11 12 11 10 7 8 8 6 7 7 7 5 6 7 8
5 6 2 3 4 5 2 1 5 5 3 6 4 4 5 5 5 2 2 5 7 7 9 9 8 9 9 9 9 11 12 12 13 12 12 12 10 9 8 8 8 7 7 8
2 6 7 5 5 4 4 5 4 4 6 5 6 4 7 5 4 5 6 7 7 8 9 9 8 12 12 12 8 11 14 14 13 13 13 12 11 10 10 9 9 8 7 8
2 3 6 5 4 0 4 4 4 4 6 7 7 8 8 5 4 4 5 6 6 10 8 8 11 12 12 11 14 12 15 14 15 14 13 11 10 11 11 8 8 8 8 8
4 4 7 2 1 3 4 4 6 9 10 12 9 6 5 5 3 3 6 8 7 7 8 9 10 11 12 12 13 12 14 12 13 14 13 12 12 11 10 10 9 8 9 9
3 8 6 7 9 5 4 5 7 10 8 7 7 5 4 4 4 4 5 5 6 7 8 8 9 10 12 13 14 15 14 13 13 13 11 10 11 10 10 9 9 11 15 15
Wind_Direction
354 22 263 270 215 211 252 222 231 231 202 142 218 82 190 187 192 197 199 205 211 221 226 174 209 194 180 181 186 192 193 189 164 156 186 220 226 212 232 226 218 207 213 186
5 272 276 246 264 290 268 250 324 28 106 112 155 135 136 191 205 203 200 208 210 205 157 189 181 196 195 175 185 188 196 180 185 180 189 187 191 219 217 222 218 215 205 195
178 251 307 323 305 311 232 134 127 153 45 26 59 345 34 29 253 206 216 217 187 180 184 200 139 182 198 204 182 188 187 178 187 172 147 51 300 349 180 203 205 214 209 205
229 300 271 285 249 188 60 213 322 104 68 225 86 267 52 340 359 23 240 197 184 182 176 188 167 184 192 202 202 191 176 176 184 164 173 191 207 214 233 217 211 190 202 211
247 318 343 311 256 163 217 82 59 23 111 101 343 85 317 348 354 332 338 126 195 201 178 170 186 177 102 108 203 204 190 189 167 188 188 200 206 234 248 247 220 214 195 205
247 252 225 221 293 178 74 82 49 51 81 37 327 87 318 290 221 275 335 132 294 31 27 348 345 78 79 97 180 166 161 37 23 325 221 206 217 216 218 229 237 238 227 199
318 260 256 180 200 26 73 54 357 1 16 219 314 63 226 290 284 177 228 307 340 21 15 311 264 211 135 152 55 137 109 86 61 14 331 298 230 223 229 227 219 206 218 209
222 329 192 195 192 178 102 144 147 215 217 261 333 140 232 208 351 334 165 138 75 19 351 312 292 230 226 202 121 105 105 118 67 41 319 285 280 241 242 227 224 225 218 218
169 267 310 241 138 127 162 147 187 100 33 69 304 314 138 176 205 129 99 69 37 24 357 345 338 335 305 218 141 133 118 151 142 133 219 262 257 237 226 236 223 235 215 213
193 316 285 328 80 38 109 160 56 21 144 192 301 286 237 192 192 244 110 102 104 111 311 338 335 324 320 263 129 149 151 158 198 204 227 229 250 239 237 235 222 239 229 162
154 99 296 14 19 253 26 23 52 111 102 149 170 265 231 178 187 172 151 158 192 125 212 300 321 300 69 76 83 137 154 165 203 218 257 273 283 273 254 231 221 234 205 167
200 143 201 179 9 17 112 112 113 110 213 111 147 272 308 182 191 161 173 316 112 144 217 266 268 273 60 88 65 108 110 155 199 226 259 276 273 276 271 271 257 248 212 177
183 24 51 352 0 359 57 5 100 106 71 199 132 266 345 105 236 205 166 131 114 155 191 267 266 260 313 71 92 131 144 171 181 189 189 217 321 346 355 276 289 241 221 173
99 94 145 173 203 164 102 338 89 107 105 177 226 325 332 32 84 94 100 125 137 151 185 244 266 272 310 256 200 185 205 221 229 194 150 143 128 13 43 60 88 27 299 285
90 104 96 146 220 121 70 74 213 122 171 158 187 112 312 25 84 86 105 115 131 164 213 258 303 312 318 308 303 306 267 230 213 191 185 178 138 115 85 67 44 45 38 19
22 145 58 17 353 60 62 21 93 26 100 76 109 86 34 36 61 50 45 61 51 29 326 285 275 302 316 295 281 256 250 239 265 235 215 245 227 219 197 186 179 149 153 166
88 124 89 240 347 35 14 335 47 46 14 130 127 93 117 83 82 75 60 62 66 30 15 9 354 337 319 310 317 314 277 266 227 219 239 220 229 249 245 226 218 230 224 207
118 94 86 167 18 47 229 135 87 86 48 52 78 93 117 113 109 70 46 73 51 34 25 13 356 346 355 344 345 330 328 319 291 264 245 238 231 225 242 226 224 225 213 217
66 118 76 106 71 35 285 261 257 114 13 359 96 87 63 141 81 32 29 44 34 16 356 328 314 312 323 338 328 327 325 325 321 307 305 301 295 269 247 229 229 227 211 218
61 66 103 105 132 196 226 220 118 117 321 204 132 103 64 38 19 284 1 357 0 353 347 335 332 331 335 332 330 321 313 311 300 285 286 291 289 272 266 259 259 256 221 228
25 18 114 99 118 286 232 307 118 124 226 156 126 122 132 136 191 152 27 354 291 317 343 337 335 329 323 330 330 324 322 314 308 302 312 300 288 280 262 253 245 248 244 241
145 124 132 91 89 256 41 127 181 182 94 129 141 149 130 126 85 74 339 348 352 347 343 342 333 325 316 322 324 319 310 305 310 308 303 298 296 296 295 282 274 252 251 249
61 174 163 162 209 272 293 137 114 123 139 165 132 131 118 100 43 14 352 352 340 336 329 325 314 334 335 332 304 308 308 310 309 303 297 293 292 291 280 267 264 263 244 246
73 149 96 89 282 159 91 61 102 128 108 94 92 83 75 91 40 5 352 338 334 346 332 321 331 333 328 343 345 333 327 351 338 321 306 289 281 284 279 266 260 254 253 243
196 91 127 43 334 71 29 127 124 100 97 90 81 89 95 86 34 1 353 356 346 334 336 342 342 335 335 338 337 332 329 331 323 317 313 308 301 289 280 274 269 261 252 242
177 166 157 199 192 142 156 138 119 112 114 121 116 87 72 74 36 339 13 354 342 346 345 355 353 342 336 330 330 331 329 322 313 310 310 304 299 301 295 278 275 250 246 259